Sault Sainte Marie, MI

5:59 PM EST on February 13, 2016 (GMT -0500)
Sault Ste Marie Municipal / Sanderson Field

Weather History for KANJ - January, 2014

Change the Weather History Date:

Tuesday, January 21, 2014

  Actual Average Record
Temperature  
Mean Temperature -9 °F 15 °F  
Max Temperature 0 °F 23 °F 43 °F (1916)
Min Temperature -18 °F 7 °F -33 °F (1984)
Degree Days  
Heating Degree Days 74 50  
Month to date heating degree days 1101 1038  
Since 1 July heating degree days 4616 4297  
Moisture  
Dew Point -16 °F    
Average Humidity 67    
Maximum Humidity 82    
Minimum Humidity 51    
Precipitation  
Precipitation 0.00 in 0.07 in 0.65 in (1935)
Month to date precipitation 1.29 1.56  
Year to date precipitation 1.29 1.56  
Snow  
Snow 0.00 in 1.00 in 6.50 in (1935)
Month to date snowfall 17.4 21.9  
Since 1 July snowfall 72.1 72.1  
Snow Depth 19.00 in    
Sea Level Pressure  
Sea Level Pressure 30.23 in    
Wind  
Wind Speed 2 mph (ENE)    
Max Wind Speed 9 mph    
Max Gust Speed 12 mph    
Visibility 10 miles    
Events      
T = Trace of Precipitation, MM = Missing Value Source: NWS Daily Summary

Daily Weather History Graph

Daily Weather History Graph

Search for Another Location

Airport or City:

Trip Planner

Search our weather history database for the weather conditions in past years. The results will help you decide how hot, cold, wet, or windy it might be!

Date:

Astronomy

Jan. 21, 2014 Rise Set
Actual Time 8:12 AM EST 5:25 PM EST
Civil Twilight 7:39 AM EST 5:58 PM EST
Nautical Twilight 7:02 AM EST 6:35 PM EST
Astronomical Twilight 6:26 AM EST 7:11 PM EST
Moon 11:20 PM EST (1/21) 10:21 AM EST (1/21)
Length of Visible Light 10h 19m
Length of Day
9h 12m
Waning Gibbous, 75% of the Moon is Illuminated
Jan 21
Waning Gibbous
Jan 24
Last Quarter
Jan 30
New
Feb 6
First Quarter
Feb 14
Full

Hourly Weather History & Observations

Time (EST) Temp. Windchill Dew Point Humidity Pressure Visibility Wind Dir Wind Speed Gust Speed Precip Events Conditions
12:55 AM -9.0 °F -22.3 °F -18.0 °F 65% 30.21 in 10.0 mi ENE 5.8 mph - N/A   Clear
1:55 AM -11.0 °F -20.4 °F -18.9 °F 68% 30.21 in 10.0 mi ENE 3.5 mph - N/A   Clear
2:55 AM -11.0 °F -22.8 °F -20.0 °F 64% 30.24 in 10.0 mi North 4.6 mph - N/A   Scattered Clouds
3:55 AM -11.9 °F -21.5 °F -20.0 °F 67% 30.25 in 10.0 mi North 3.5 mph - N/A   Clear
4:55 AM -11.9 °F -21.5 °F -20.9 °F 64% 30.27 in 10.0 mi NNE 3.5 mph - N/A   Clear
5:55 AM -15.0 °F -25.0 °F -20.9 °F 75% 30.27 in 10.0 mi East 3.5 mph - N/A   Partly Cloudy
6:55 AM -18.0 °F - -23.1 °F 78% 30.29 in 10.0 mi Calm Calm - N/A   Clear
7:33 AM -16.1 °F - -20.9 °F 79% 30.22 in 10.0 mi Calm Calm - N/A   Mostly Cloudy
7:55 AM -15.0 °F - -20.9 °F 75% 30.29 in 10.0 mi Calm Calm - N/A   Overcast
8:55 AM -16.1 °F - -20.9 °F 79% 30.29 in 9.0 mi Calm Calm - N/A   Overcast
9:55 AM -13.0 °F - -20.9 °F 68% 30.31 in 8.0 mi Calm Calm - N/A   Mostly Cloudy
10:10 AM -13.0 °F - -20.0 °F 71% 30.24 in 10.0 mi Calm Calm - N/A   Scattered Clouds
10:55 AM -11.0 °F - -20.0 °F 64% 30.31 in 10.0 mi Calm Calm - N/A   Clear
11:55 AM -9.0 °F -18.2 °F -18.9 °F 62% 30.29 in 10.0 mi South 3.5 mph - N/A   Mostly Cloudy
12:55 PM -5.1 °F - -17.0 °F 57% 30.27 in 10.0 mi Calm Calm - N/A   Overcast
1:55 PM -2.9 °F - -16.1 °F 54% 30.25 in 10.0 mi Calm Calm - N/A   Overcast
2:20 PM -0.9 °F - -15.0 °F 52% 30.17 in 10.0 mi Calm Calm - N/A   Scattered Clouds
2:55 PM -0.9 °F - -13.0 °F 57% 30.25 in 10.0 mi North - - N/A   Clear
3:55 PM -0.9 °F -11.0 °F -11.0 °F 62% 30.25 in 10.0 mi WNW 4.6 mph - N/A   Clear
4:55 PM -0.9 °F -11.0 °F -11.9 °F 60% 30.25 in 10.0 mi WNW 4.6 mph - N/A   Clear
5:55 PM -4.0 °F - -13.0 °F 65% 30.26 in 10.0 mi Calm Calm - N/A   Clear
6:29 PM -6.0 °F - -11.9 °F 75% 30.17 in 10.0 mi Calm Calm - N/A   Mostly Cloudy
6:55 PM -6.0 °F - -11.9 °F 75% 30.24 in 10.0 mi Calm Calm - N/A   Overcast
7:27 PM -5.1 °F -13.6 °F -11.9 °F 72% 30.17 in 10.0 mi SSW 3.5 mph - N/A   Overcast
7:42 PM -4.0 °F -12.4 °F -11.0 °F 72% 30.17 in 10.0 mi SSW 3.5 mph - N/A   Overcast
7:55 PM -4.0 °F -12.4 °F -11.0 °F 72% 30.23 in 10.0 mi SSE 3.5 mph - N/A   Overcast
8:55 PM -5.1 °F - -11.9 °F 72% 30.22 in 10.0 mi Calm Calm - N/A   Overcast
9:07 PM -5.1 °F - -11.9 °F 72% 30.15 in 10.0 mi Calm Calm - N/A   Mostly Cloudy
9:55 PM -5.1 °F -13.6 °F -9.9 °F 80% 30.20 in 10.0 mi East 3.5 mph - N/A   Overcast
10:32 PM -5.1 °F -13.6 °F -9.9 °F 80% 30.13 in 10.0 mi East 3.5 mph - N/A   Overcast
10:55 PM -5.1 °F -13.6 °F -9.9 °F 80% 30.19 in 10.0 mi East 3.5 mph - N/A   Overcast
11:15 PM -5.1 °F - -9.9 °F 80% 30.13 in 10.0 mi Calm Calm - N/A   Overcast
11:55 PM -5.1 °F -13.6 °F -9.9 °F 80% 30.18 in 10.0 mi NNE 3.5 mph - N/A   Overcast